DECAYED

NOAA 16 DEB, 41306 (Decayed)

Orbit data source: Space-Track

NOAA 16 DEB, 41306 was space debris in SSO originally from a launch on Thu, 21 Sep 2000 UTC launched from the Air Force Western Test Range (AFWTR). Debris objects in space refer to the collection of defunct objects orbiting the Earth. Examples of debris include non-operational satellites, rocket bodies, and fragments generated from explosions, collisions, or faulty payload assembly.

Not visible in the next 10 days
Identifier
41306, 2000-055HJ
Orbit
Decayed
Country
Flag of USUS
Related business
Manufacturer
Unknown
Mission
Decayed spacecraft
Bus & Motor
Unknown
Mass
Unknown
Launch date (UTC)
2000-09-21 (26 years ago)
Launch vehicle
Unknown
Launch site
Air Force Western Test Range (AFWTR)
Object type
Payload
Rocket body
Debris
Shape & HBR
Unknown shape, 0.1 m
Radar Cross Section
Small (<0.1 m²)

Expand to show TLE details & history
Last TLE update: 6 months ago

TLE from 6 months ago
0 NOAA 16 DEB
1 41306U 00055HJ  25363.73408695  .00614054  00000-0  15324-1 0  9991
2 41306  98.8887 282.2437 0019149  53.2494 307.0501 15.37561226526628
Epoch: 2025-12-29T17:37Z
TLE epoch observation values (Epoch: 2025-12-29T17:37:05.112Z)
Latitude
0.00001°
Longitude
-80.45507°
Altitude
448.523 km
Speed
7.648 km/s
True Right ascension
18h 48m 58s
True Declination
0° 00' 00"
Sunlit
Object was in daylight at epoch
Visualization orbit readout
Latitude
Unknown
Longitude
Unknown
Altitude
Unknown
Speed
Unknown
Apparent Right ascension
Unknown
Apparent Declination
Unknown
Sunlit
N/A
Visualization observer readout
Local Sidereal Time
23:51:08
Azimuth
Unknown
Elevation
Unknown
Doppler factor
Unknown
Orbital elements
Apogee altitude
463.412 km
Perigee altitude
437.26 km
Semi-major axis
6,828.473 km
Eccentricity
0.00191
Inclination
98.8887°
RAAN
282.2437°
Arg. of periapsis
53.2494°
True anomaly
306.87472°
Mean anomaly
307.0501°
Eccentric anomaly
306.96243°
Mean motion
3.84643 °/min
Orbital period
93.59 mins
BSTAR
0.015324
Loading maneuver chart data...
Computing Atmospheric mass density...
Loading historical data...
Loading historical data...
Loading historical data...
Loading historical data...
Loading historical data...
Loading historical data...
Loading historical data...

Documentation

Showing up to 5 results
|